CW0630 Weather Reports


time (UTC)temp
F
wind
direction
speed
knots
gust
knots
rain 1hr
in
rain 24hr
in
rain mn
in
humidity
%
barometer
mb
20260506160854 63 173 3.5 4.3 0.01 0.07 0.07 89 1011.0
20260506150850 63 160 4.3 7.0 0.06 0.06 0.06 89 1011.9
20260506140906 64 176 4.3 6.1 0.00 0.00 0.00 83 1012.1
20260506130908 66 186 4.3 4.3 0.00 0.00 0.00 74 1011.7
20260506120853 65 196 5.2 7.8 0.00 0.00 0.00 73 1011.4
20260506110852 64 188 5.2 5.2 0.00 0.00 0.00 76 1011.4
20260506100901 64 189 2.6 4.3 0.00 0.00 0.00 75 1011.5
20260506090900 64 196 4.3 8.7 0.00 0.00 0.00 76 1011.4
20260506080900 64 184 5.2 5.2 0.00 0.00 0.00 75 1011.9
20260506070852 65 182 4.3 7.8 0.00 0.00 0.00 72 1012.0
20260506060849 66 144 13.0 13.0 0.00 0.00 0.00 70 1012.3
20260506050859 68 180 9.6 12.2 0.00 0.00 0.00 67 1012.6
20260506040851 70 165 7.8 7.8 0.00 0.00 0.00 62 1012.9
20260506030948 71 173 7.8 7.8 0.00 0.00 0.00 58 1012.6
20260506020959 72 186 1.7 3.5 0.00 0.00 0.00 54 1012.6
20260506011001 74 162 2.6 2.6 0.00 0.00 0.00 51 1012.2
20260506000946 76 176 7.8 7.8 0.00 0.00 0.00 47 1011.7
20260505230951 78 194 9.6 9.6 0.00 0.00 0.00 42 1011.5
20260505220957 80 196 4.3 4.3 0.00 0.00 0.00 36 1011.4
20260505210952 82 196 5.2 14.8 0.00 0.00 0.00 32 1011.4
20260505201007 84 196 8.7 10.4 0.00 0.00 0.00 32 1011.3
20260505191005 85 217 4.3 10.4 0.00 0.00 0.00 31 1012.0
20260505180952 84 190 12.2 12.2 0.00 0.00 0.00 34 1012.9
20260505170949 83 215 2.6 5.2 0.00 0.00 0.00 41 1013.4